Home   Weather   49°36'N, 9°28'E   Past weeks
Flag for Germany

Past Weather in 49°36'N, 9°28'E, Germany — Yesterday and Last 2 Weeks

Now
55 °F

Partly sunny.


Feels Like: 52 °F
Forecast: 64 / 47 °F
Wind: 12 mph from Southeast

Location: Niederstetten

Current Time: Oct 23, 2019 at 5:41:14 pm

Latest Report: Oct 23, 2019 at 4:20 pm


Visibility: N/A

Pressure: 29.95 "Hg

Humidity: 94%

Dew Point: 54 °F

Location of 49°36'N, 9°28'ELocation

Past Weather in 49°36'N, 9°28'E — Graph

°F

49°36'N, 9°28'E Temperature Yesterday

Maximum temperature yesterday: 61 °F (at 4:20 pm)
Minimum temperature yesterday: 46 °F (at 5:20 am)
Average temperature yesterday: 52 °F

High & Low Weather Summary for the Past Weeks

 TemperatureHumidityPressure
High77 °F (Oct 13, 3:20 pm)100% (Oct 8, 6:20 pm)30.27 "Hg (Oct 8, 6:20 pm)
Low45 °F (Oct 10, 1:20 am)44% (Oct 14, 1:20 pm)29.71 "Hg (Oct 15, 2:20 pm)
Average55 °F85%29.97 "Hg
* Reported Oct 8 4:20 pm — Oct 23 4:20 pm, 49°36'N, 9°28'E. Weather by CustomWeather, © 2019

Note: Actual official high and low records may vary slightly from our data, if they occured in-between our weather recording intervals... More about our weather records

Advertising

49°36'N, 9°28'E Weather History for the Previous 24 Hours

Scroll right to see more
 ConditionsComfort  
Time TempWeatherWind HumidityBarometerVisibility
4:20 pm
Wed, Oct 23
55 °FPartly sunny.12 mph94%29.95 "HgN/A
3:20 pm55 °FPartly sunny.15 mph94%29.98 "HgN/A
2:20 pm55 °FPartly sunny.13 mph88%30.01 "HgN/A
1:42 pm54 °FLow clouds.13 mph94%30.01 "Hg6 mi
1:20 pm54 °FLow clouds.12 mph94%30.01 "Hg5 mi
12:50 pm54 °FFog.13 mph94%30.01 "Hg3 mi
12:20 pm52 °FFog.14 mph100%30.04 "Hg2 mi
11:50 am52 °FFog.13 mph100%30.04 "Hg2 mi
11:20 am52 °FFog.12 mph100%30.04 "Hg1 mi
10:20 am50 °FFog.13 mph100%30.07 "Hg1 mi
10:08 am50 °FFog.10 mph100%30.07 "Hg1 mi
9:20 am50 °FFog.13 mph100%30.07 "Hg1 mi
9:10 am50 °FFog.10 mph100%30.07 "Hg1 mi
8:20 am50 °FFog.12 mph100%30.07 "Hg0 mi
7:44 am50 °FFog.13 mph100%30.07 "Hg0 mi
7:20 am50 °FFog.10 mph100%30.07 "Hg1 mi
7:15 am50 °FFog.9 mph100%30.07 "Hg1 mi
6:20 am50 °FFog.14 mph100%30.07 "Hg1 mi
5:20 am52 °FDrizzle. Fog.14 mph94%30.07 "Hg1 mi
4:20 am50 °FFog.8 mph100%30.09 "Hg1 mi
3:43 am50 °FFog.9 mph100%30.09 "Hg1 mi
3:36 am48 °FFog.9 mph100%30.09 "Hg3 mi
2:20 am48 °FPassing clouds.8 mph100%30.12 "HgN/A
1:20 am50 °FPassing clouds.6 mph100%30.15 "HgN/A
12:20 am50 °FPassing clouds.5 mph94%30.15 "HgN/A
11:20 pm
Tue, Oct 22
50 °FPassing clouds.5 mph100%30.18 "HgN/A
11:01 pm50 °FPassing clouds.6 mph100%30.18 "HgN/A
10:20 pm50 °FPassing clouds.8 mph94%30.18 "HgN/A
9:20 pm50 °FPassing clouds.7 mph100%30.18 "HgN/A
8:20 pm52 °FPassing clouds.6 mph94%30.21 "HgN/A
7:20 pm54 °FPassing clouds.6 mph88%30.21 "HgN/A
6:20 pm55 °FPassing clouds.3 mph88%30.21 "HgN/A
5:20 pm57 °FPartly sunny.6 mph82%30.21 "HgN/A
Weather by CustomWeather, © 2019

See weather overview